7 * 24
多渠道服务支持
STARLINK-34240是美国SpaceX公司星链(Starlink)卫星互联网星座的一员,于2025年6月4日发射入轨。星链项目旨在通过近地轨道部署数万颗小型卫星,为全球提供高速低延迟互联网服务,可覆盖偏远地区、支持海事航空等场景,也可用于军事和应急通信。作为星链持续扩容的组成部分,该卫星将服务全球网络覆盖,同时星链大规模组网也引发了太空拥堵、天文观测干扰等争议。
美国
(US)
| 数据来源 | 国际轨道数据 |
| 星历时间: | 2026-04-29T15:49:00+0800 8小时前 查看轨道信息 |
| 半长轴: | 6853.347km |
| 偏心率: | 0.000114 |
| 轨道倾角: | 53.162° |
| 近地点辐角 | 92.861° |
| 升交点赤经 | 241.854° |
| 平近点角 | 267.252° |
| 近地点: | 474.428km |
| 远地点: | 475.992km |
| 周期: | 94.105分钟 |
| 每日圈数: | 15.302019 |